Date String (YYYY-MM-DD hh:mm:ss) UTC,Instrument flags,absolute air pressure of the measurement (hPa),sample flow rate (lpm),inlet stack bypass flow (lpm),air temperature of the measurement (°C),ambient temperature measured by the external sensor (°C),aerosol sample conditioner tube jacket temperature (°C),OPC LED temperature (°C),internal box temperature (°C),relative humidity of the measurement (%),span deviation,mass concentration of particles derived from Lorenz-Mie calculation of OPC scattering (μg/m³),mass concentration of particles derived from Lorenz-Mie calculation of OPC scattering (μg/m³),mass concentration of particles derived from Lorenz-Mie calculation of OPC scattering (μg/m³)
DateTimeUTC,F1_M11,P_M11,Q1_M11,Q2_M11,T1_M11,T2_M11,T3_M11,T4_M11,T5_M11,U1_M11,ZSPAN_M11,X0_M11,X2_M11,X1_M11
2023-10-21 16:00:00,SystemResetWarning,0829.8,5.00,000.00,028.9,026.9,000.0,037.4,030.5,11.7,0000.0,0005.11,0001.96,0001.09
2023-10-21 16:01:00,SystemResetWarning,0829.8,5.00,000.00,028.9,027.1,000.0,037.4,030.5,11.6,0000.0,0005.02,0001.96,0001.10
2023-10-21 16:02:00,SystemResetWarning,0829.8,5.00,000.00,028.9,027.3,000.0,037.4,030.5,11.4,0000.0,0004.94,0001.98,0001.12
2023-10-21 16:03:00,SystemResetWarning,0829.8,5.00,000.00,028.9,027.5,000.0,037.4,030.6,11.4,0000.0,0004.74,0002.01,0001.13
2023-10-21 16:04:00,SystemResetWarning,0829.8,5.00,000.00,029.0,027.6,000.0,037.4,030.6,11.4,0000.0,0004.80,0002.02,0001.13
2023-10-21 16:05:00,SystemResetWarning,0829.8,5.00,000.00,029.0,027.7,000.0,037.4,030.7,11.3,0000.0,0005.62,0001.96,0001.13
2023-10-21 16:06:00,SystemResetWarning,0829.8,4.99,000.00,029.0,027.8,000.0,037.5,030.8,11.3,0000.0,0005.58,0001.94,0001.13
2023-10-21 16:07:00,SystemResetWarning,0829.8,5.00,000.00,029.1,027.9,000.0,037.5,030.8,11.3,0000.0,0005.58,0001.98,0001.14
2023-10-21 16:08:00,SystemResetWarning,0829.8,4.99,000.00,029.1,027.2,000.0,037.5,030.8,11.2,0000.0,0005.69,0002.01,0001.15
2023-10-21 16:09:00,SystemResetWarning,0829.8,5.01,000.00,029.0,025.4,000.0,037.4,030.6,11.1,0000.0,0005.73,0002.04,0001.15
2023-10-21 16:10:00,SystemResetWarning,0829.8,5.01,000.00,028.9,024.8,000.0,037.3,030.4,11.1,0000.0,0006.11,0002.05,0001.14
2023-10-21 16:11:00,SystemResetWarning,0829.8,5.00,000.00,028.9,025.1,000.0,037.3,030.3,11.2,0000.0,0006.30,0002.06,0001.14
2023-10-21 16:12:00,SystemResetWarning,0829.7,5.00,000.00,028.8,025.4,000.0,037.3,030.2,11.2,0000.0,0006.77,0002.08,0001.13
2023-10-21 16:13:00,SystemResetWarning,0829.7,5.00,000.00,028.7,025.8,000.0,037.3,030.2,11.3,0000.0,0006.89,0001.99,0001.12
2023-10-21 16:14:00,SystemResetWarning,0829.7,5.01,000.00,028.7,026.2,000.0,037.3,030.3,11.4,0000.0,0007.33,0001.93,0001.10
2023-10-21 16:15:00,SystemResetWarning,0829.7,5.00,000.00,028.7,026.5,000.0,037.3,030.3,11.4,0000.0,0007.38,0001.88,0001.09
2023-10-21 16:16:00,SystemResetWarning,0829.8,4.99,000.00,028.7,026.8,000.0,037.3,030.4,11.4,0000.0,0006.96,0001.87,0001.09
2023-10-21 16:17:00,SystemResetWarning,0829.8,5.00,000.00,028.8,027.0,000.0,037.3,030.4,11.4,0000.0,0007.25,0001.90,0001.09
2023-10-21 16:18:00,SystemResetWarning,0829.7,4.99,000.00,028.8,027.2,000.0,037.3,030.5,11.4,0000.0,0007.83,0001.87,0001.08
2023-10-21 16:19:00,SystemResetWarning,0829.7,4.99,000.00,028.8,027.4,000.0,037.3,030.5,11.5,0000.0,0008.10,0001.88,0001.08
2023-10-21 16:20:00,SystemResetWarning,0829.7,5.00,000.00,028.8,027.5,000.0,037.3,030.6,11.6,0000.0,0008.12,0001.88,0001.07
2023-10-21 16:21:00,SystemResetWarning,0829.7,5.00,000.00,028.9,027.6,000.0,037.3,030.6,11.4,0000.0,0007.92,0001.87,0001.08
2023-10-21 16:22:00,SystemResetWarning,0829.7,5.01,000.00,028.9,027.7,000.0,037.3,030.7,11.4,0000.0,0007.92,0001.87,0001.08
2023-10-21 16:23:00,SystemResetWarning,0829.7,5.00,000.00,029.0,027.8,000.0,037.4,030.7,11.3,0000.0,0007.79,0001.86,0001.08
2023-10-21 16:24:00,SystemResetWarning,0829.7,5.00,000.00,029.0,027.9,000.0,037.4,030.8,11.5,0000.0,0007.62,0001.89,0001.07
2023-10-21 16:25:00,SystemResetWarning,0829.7,5.00,000.00,029.0,027.3,000.0,037.4,030.8,11.4,0000.0,0007.41,0001.95,0001.10
2023-10-21 16:26:00,SystemResetWarning,0829.7,4.99,000.00,029.0,025.5,000.0,037.3,030.6,11.3,0000.0,0007.50,0001.99,0001.10
2023-10-21 16:27:00,SystemResetWarning,0829.7,5.01,000.00,028.9,024.9,000.0,037.2,030.4,11.5,0000.0,0007.73,0001.97,0001.09
2023-10-21 16:28:00,SystemResetWarning,0829.7,5.01,000.00,028.8,025.1,000.0,037.2,030.3,11.7,0000.0,0008.01,0002.03,0001.10
2023-10-21 16:29:00,SystemResetWarning,0829.7,5.00,000.00,028.7,025.4,000.0,037.2,030.2,12.0,0000.0,0007.70,0002.10,0001.10
2023-10-21 16:30:00,SystemResetWarning,0829.7,5.01,000.00,028.7,025.8,000.0,037.2,030.2,12.1,0000.0,0008.10,0002.10,0001.10
2023-10-21 16:31:00,SystemResetWarning,0829.7,4.99,000.00,028.7,026.2,000.0,037.2,030.2,12.0,0000.0,0008.07,0002.16,0001.11
2023-10-21 16:32:00,SystemResetWarning,0829.7,5.00,000.00,028.7,026.5,000.0,037.2,030.3,11.7,0000.0,0008.51,0002.16,0001.11
2023-10-21 16:33:00,SystemResetWarning,0829.7,5.00,000.00,028.7,026.7,000.0,037.2,030.3,11.6,0000.0,0009.78,0002.18,0001.11
2023-10-21 16:34:00,SystemResetWarning,0829.7,5.00,000.00,028.7,027.0,000.0,037.2,030.4,11.6,0000.0,0010.07,0002.17,0001.10
2023-10-21 16:35:00,SystemResetWarning,0829.7,5.00,000.00,028.7,027.2,000.0,037.2,030.4,11.7,0000.0,0010.51,0002.20,0001.12
2023-10-21 16:36:00,SystemResetWarning,0829.7,5.00,000.00,028.8,027.4,000.0,037.3,030.5,11.8,0000.0,0011.01,0002.19,0001.12
2023-10-21 16:37:00,SystemResetWarning,0829.6,5.00,000.00,028.8,027.5,000.0,037.3,030.6,11.9,0000.0,0010.80,0002.17,0001.13
2023-10-21 16:38:00,SystemResetWarning,0829.7,5.00,000.00,028.9,027.6,000.0,037.3,030.6,11.9,0000.0,0010.26,0002.21,0001.13
2023-10-21 16:39:00,SystemResetWarning,0829.7,5.00,000.00,028.9,027.8,000.0,037.3,030.7,12.1,0000.0,0009.88,0002.20,0001.13
2023-10-21 16:40:00,SystemResetWarning,0829.7,4.99,000.00,028.9,027.7,000.0,037.3,030.7,12.1,0000.0,0009.83,0002.16,0001.14
2023-10-21 16:41:00,SystemResetWarning,0829.7,5.00,000.00,028.9,026.3,000.0,037.3,030.6,12.3,0000.0,0009.17,0002.14,0001.15
2023-10-21 16:42:00,SystemResetWarning,0829.6,5.00,000.00,028.9,024.8,000.0,037.2,030.4,12.5,0000.0,0009.06,0002.11,0001.15
2023-10-21 16:43:00,SystemResetWarning,0829.6,5.02,000.00,028.8,024.9,000.0,037.1,030.3,12.6,0000.0,0008.79,0002.13,0001.16
2023-10-21 16:44:00,SystemResetWarning,0829.6,5.00,000.00,028.7,025.2,000.0,037.1,030.1,12.7,0000.0,0007.71,0002.18,0001.17
2023-10-21 16:45:00,SystemResetWarning,0829.6,5.00,000.00,028.6,025.6,000.0,037.2,030.1,12.5,0000.0,0007.06,0002.19,0001.17
2023-10-21 16:46:00,SystemResetWarning,0829.6,5.00,000.00,028.6,026.0,000.0,037.2,030.2,12.3,0000.0,0006.29,0002.14,0001.18
2023-10-21 16:47:00,SystemResetWarning,0829.6,4.99,000.00,028.6,026.3,000.0,037.2,030.2,12.2,0000.0,0006.29,0002.12,0001.17
2023-10-21 16:48:00,SystemResetWarning,0829.6,5.00,000.00,028.6,026.6,000.0,037.2,030.3,12.3,0000.0,0008.07,0002.12,0001.17
2023-10-21 16:49:00,SystemResetWarning,0829.6,5.00,000.00,028.7,026.9,000.0,037.2,030.4,12.1,0000.0,0008.81,0002.11,0001.17
2023-10-21 16:50:00,SystemResetWarning,0829.6,5.00,000.00,028.7,027.1,000.0,037.2,030.4,12.2,0000.0,0008.95,0002.07,0001.17
2023-10-21 16:51:00,SystemResetWarning,0829.6,4.99,000.00,028.7,027.3,000.0,037.2,030.5,12.2,0000.0,0009.52,0002.02,0001.16
2023-10-21 16:52:00,SystemResetWarning,0829.7,4.99,000.00,028.8,027.5,000.0,037.2,030.5,12.2,0000.0,0009.60,0002.02,0001.16
2023-10-21 16:53:00,SystemResetWarning,0829.6,5.00,000.00,028.8,027.6,000.0,037.2,030.6,12.1,0000.0,0009.65,0002.03,0001.15
2023-10-21 16:54:00,SystemResetWarning,0829.6,5.01,000.00,028.9,027.7,000.0,037.2,030.6,12.0,0000.0,0010.27,0002.08,0001.14
2023-10-21 16:55:00,SystemResetWarning,0829.6,5.00,000.00,028.9,027.6,000.0,037.2,030.7,12.1,0000.0,0010.67,0002.06,0001.14
2023-10-21 16:56:00,SystemResetWarning,0829.6,4.98,000.00,028.9,026.2,000.0,037.2,030.6,12.1,0000.0,0010.74,0002.01,0001.14
2023-10-21 16:57:00,SystemResetWarning,0829.6,5.02,000.00,028.8,024.9,000.0,037.1,030.4,12.3,0000.0,0011.28,0002.03,0001.13
2023-10-21 16:58:00,SystemResetWarning,0829.5,5.00,000.00,028.7,024.9,000.0,037.1,030.3,12.2,0000.0,0011.68,0002.01,0001.12
2023-10-21 16:59:00,SystemResetWarning,0829.4,5.00,000.00,028.6,025.2,000.0,037.1,030.1,12.2,0000.0,0010.24,0002.00,0001.12
